Flag for Japan Weather past 2 weeks in Utsunomiya, Japan

Now
64 °F

Passing clouds.


Feels Like: 64 °F
Forecast: 46 / 68 °F
Wind: 6 mph from East

Location: Mito

Current Time: Oct 24, 2014 at 4:09:33 PM

Latest Report: Oct 24, 2014 at 3:00 PM


Visibility: 16 mi

Pressure: 30.15 "Hg

Humidity: 58%

Dew point: 49 °F

Location of UtsunomiyaLocation

Historic Weather in Utsunomiya — Graph

°F

Utsunomiya temperature yesterday

Maximum temperature yesterday: 59 °F (at 12:00 PM)
Minimum temperature yesterday: 51 °F (at 11:00 PM)
Average temperature yesterday: 55 °F

Past Weeks' High & Low Weather Summary

 TemperatureHumidityPressure
High78 °F (Oct 14, 10:00 AM)97% (Oct 10, 3:00 AM)30.38 "Hg (Oct 10, 3:00 AM)
Low44 °F (Oct 18, 6:00 AM)37% (Oct 14, 2:00 PM)29.09 "Hg (Oct 14, 4:00 AM)
Average61 °F77%30.07 "Hg
* Reported Oct 9 2:00 PM — Oct 24 2:00 PM, Utsunomiya, Weather by CustomWeather, © 2014

Note: Actual official high and low records may vary slightly from our data, if they occured in-between our weather recording intervals... More about our weather records

Advertising

Utsunomiya weather history for previous 24 hours

 ConditionsComfort  
Time TempWeatherWind HumidityBarometerVisibility
2:00 PM
Oct 24
65 °FMild.5 mph55%30.15 "HgN/A
1:00 PM66 °FMild.3 mph50%30.15 "HgN/A
12:00 PM65 °FMild.3 mph52%30.16 "HgN/A
11:00 AM64 °FMild.3 mph54%30.19 "HgN/A
10:00 AM63 °FMild.5 mph57%30.20 "HgN/A
9:00 AM58 °FPassing clouds.3 mph76%30.21 "Hg16 mi
8:00 AM53 °FCool.3 mph83%30.21 "HgN/A
7:00 AM50 °FCool.2 mph95%30.19 "HgN/A
6:00 AM48 °FCool.2 mph96%30.17 "HgN/A
5:00 AM49 °FCool.2 mph96%30.16 "HgN/A
4:00 AM50 °FCool.3 mph95%30.16 "HgN/A
3:00 AM51 °FOvercast.3 mph94%30.16 "Hg12 mi
2:00 AM51 °FCool.2 mph93%30.16 "HgN/A
1:00 AM52 °FCool.2 mph92%30.15 "HgN/A
12:00 AM51 °FCool.2 mph94%30.14 "HgN/A
11:00 PM
Oct 23
51 °FCool.2 mph92%30.15 "HgN/A
10:00 PM52 °FCool.3 mph88%30.16 "HgN/A
9:00 PM53 °FOvercast.3 mph85%30.16 "Hg12 mi
8:00 PM53 °FCool.2 mph86%30.15 "HgN/A
7:00 PM54 °FCool.2 mph85%30.14 "HgN/A
6:00 PM55 °FCool.5 mph80%30.13 "HgN/A
5:00 PM57 °FCool.10 mph79%30.10 "HgN/A
4:00 PM57 °FCool.10 mph82%30.09 "HgN/A
Weather by CustomWeather, © 2014

See weather overviewHow to use our weather pages